Regional Weather Roundup
Issued by NWS

Current Version | Previous Version | Text Only | Print | Product List | Glossary On
Versions: 1 2 3 4 5 6 7 8 9 10 11 12 13 14 15 16 17 18 19 20 21 22 23 24 25 26 27 28 29 30 31 32 33 34 35 36 37 38 39 40 41 42 43 44 45 46 47 48 49 50
000
ASUS44 KBMX 181110
RWRAL

ALABAMA REGIONAL WEATHER ROUNDUP
NATIONAL WEATHER SERVICE BIRMINGHAM AL
500 AM CST THU DEC 18 2014

NOTE: "FAIR" INDICATES FEW OR NO CLOUDS BELOW 12,000 FEET
WITH NO SIGNIFICANT WEATHER AND/OR OBSTRUCTIONS TO VISIBILITY.

THE REMARK "TC" DENOTES TEMPERATURE IN DEGREES CELSIUS.

ALZ001>011-014-016>018-020-181200-
NORTH ALABAMA

CITY           SKY/WX    TMP DP  RH WIND       PRES   REMARKS
MUSCLE SHOALS  LGT RAIN  40  30  67 CALM      30.25S
HUNTSVILLE     CLOUDY    39  31  72 N3        30.24S
DECATUR        CLOUDY    38  31  76 N3        30.25S
HALEYVILLE     CLOUDY    36  31  82 CALM      30.24F
GADSDEN        MOCLDY    34  28  80 N6        30.21S WCI  29
$$

ALZ012-013-022-023-030>036-040>044-181200-
WEST CENTRAL ALABAMA

CITY           SKY/WX    TMP DP  RH WIND       PRES   REMARKS
TUSCALOOSA     MOCLDY    37  34  89 CALM      30.24S
$$

ALZ015-024>027-033>036-040>044-181200-
CENTRAL ALABAMA

CITY           SKY/WX    TMP DP  RH WIND       PRES   REMARKS
BIRMINGHAM     PTCLDY    34  31  88 CALM      30.23R
MONTGOMERY     MOCLDY    39  36  89 CALM      30.21S
SHELBY CO ARPT CLEAR     36  33  89 NW5       30.20S WCI  32
MAXWELL AFB    PTCLDY    37  35  93 W1        30.20S
GREENVILLE     FAIR      40  36  86 N3        30.18F
$$

ALZ019-021-028-029-037-038-045>048-181200-
EAST CENTRAL ALABAMA

CITY           SKY/WX    TMP DP  RH WIND       PRES   REMARKS
ANNISTON       PTCLDY    31  29  92 SW5       30.21R WCI  26
ALEXANDER CITY PTCLDY    37  32  84 CALM      30.18R
AUBURN         CLOUDY    36  32  87 NW5       30.19R WCI  32
$$

ALZ051>064-181200-
SOUTHWEST ALABAMA

CITY           SKY/WX    TMP DP  RH WIND       PRES   REMARKS
MOBILE         MOCLDY    42  39  89 NE5       30.19S
BROOKLEY FIELD MOCLDY    45  41  86 N6        30.21R
EVERGREEN      CLOUDY    40  37  89 N5        30.20F
$$

ALZ049-050-065>069-181200-
SOUTHEAST ALABAMA

CITY           SKY/WX    TMP DP  RH WIND       PRES   REMARKS
DOTHAN         PTCLDY    40  38  93 NW5       30.20R
OZARK          PTCLDY    40  37  90 NW6       30.17R
TROY           CLOUDY    40  37  89 NW7       30.20R
EUFAULA        FAIR      41  37  86 CALM      30.17R
$$



USA.gov is the U.S. government's official web portal to all federal, state and local government web resources and services.